Location: Castellare
(42.4669°N, 9.4728°E)
Time: 07:32:37
(UTC+00:00)

Cosmos 1605 Rocket - Pass Details

Date: 17 February 2020
Orbit: 944 x 1007 km, 82.9° (Epoch: 03 April)

Event Time Altitude Azimuth Distance (km) Brightness Sun altitude
Rises 04:05:22 0° 351° (N) 3,695 7.0 -24.9°
Reaches altitude 10° 04:07:54 10° 350° (N) 2,733 6.3 -24.4°
Maximum altitude 04:14:09 80° 266° (W) 983 3.8 -23.3°
Drops below altitude 10° 04:20:17 10° 179° (S) 2,674 6.3 -22.1°
Sets 04:22:44 0° 178° (S) 3,609 7.0 -21.7°
